Location: Cochrane
(49.0650°N, 81.0299°W)
Time: 13:28:33
(UTC-05:00)

ISS - Visible Passes

Search period start: 09 December 2023 00:00
Search period end: 19 December 2023 00:00
Orbit: 415 x 417 km, 51.6° (Epoch: 09 December)

Date Brightness Start Highest point End Pass type
(mag) Time Alt. Az. Time Alt. Az. Time Alt. Az.
15 Dec -0.6 07:08:59 10° S 07:11:03 15° SE 07:13:07 10° E visible
17 Dec -1.8 07:06:22 10° SSW 07:09:22 32° SE 07:12:23 10° E visible
18 Dec -1.2 06:17:48 10° SSW 06:20:25 21° SE 06:23:02 10° E visible
